sat.trackr.live / text

‹ back to catalog

STARLINK-30968

NORAD 58511 · 2023-191D

PAYLOAD ACTIVE UNKNOWN

§ Identity

Operator
Country
US
Launch date
2023-12-07
Launch site
AFETR
Launch vehicle
Mass (kg)
RCS (m²)

Purposes: comms

External: N2YO · Heavens-Above · Gunter

§ Orbital elements

Epoch: 2026-09-19T20:40:02.985024Z

Period
94.27 min
Inclination
43.0025°
Eccentricity
0.0001602
Mean motion
15.27579796 rev/d
Perigee alt
482.0 km
Apogee alt
484.1 km
Semi-major
6,861.2 km
B*
4.7928e-5
RAAN
87.1707°
Arg perigee
257.0710°
Mean anomaly
102.9963°
Rev number
15,516

§ Raw data

STARLINK-309681 58511U 23191D   26262.86114566  .00001057  00000+0  47928-4 0  99972 58511  43.0025  87.1707 0001602 257.0710 102.9963 15.27579796155163

JSON: /api/v1/satellites/58511 · /tle

For live sub-satellite position, see the globe view (requires WebGL).

§ Visibility from observer

Set your observer location to see the next 7 days of passes ≥ 10°. The values pass through the URL so the page stays shareable.

No JS? Fill the form by hand. The geolocation button needs JavaScript.